Simultaneous Nadir Overpasses (SNOs) Predictions

Prediction of SNOs between METOP-A and NOAA-19 Satellite Orbit:

Table of predicted SNOs for the next 14.0 days since TLE Epoch: 4/27/2018
Index Date (METOP-A) Time (METOP-A) Lat,Lon (METOP-A) SZA (METOP-A ) Date (NOAA-19) Time (NOAA-19) Lat,Lon (NOAA-19) SZA (NOAA-19 ) Distance(km) Time Diff (sec)
1 04/28/2018 16:06:10 -78.54, 127.27 115.64 04/28/2018 16:04:59 -78.57, 125.55 115.67 38.27 71
2 04/28/2018 16:56:53 78.42, -66.10 64.21 04/28/2018 16:55:58 78.42, -66.21 64.20 2.51 55
3 04/28/2018 17:47:35 -78.40, 101.15 115.83 04/28/2018 17:46:55 -78.39, 101.27 115.84 3.20 40
4 04/28/2018 18:38:15 78.40, -91.56 64.16 04/28/2018 18:37:59 78.42, -91.66 64.17 3.23 16
5 04/28/2018 19:28:57 -78.38, 75.69 115.87 04/28/2018 19:28:56 -78.38, 75.82 115.87 2.88 1
6 04/28/2018 20:19:37 78.38,-117.01 64.11 04/28/2018 20:19:59 78.37,-116.89 64.12 2.86 22
7 04/28/2018 21:10:19 -78.36, 50.23 115.92 04/28/2018 21:10:57 -78.37, 50.37 115.90 3.22 38
8 04/28/2018 22:00:59 78.35,-142.47 64.07 04/28/2018 22:02:00 78.36,-142.34 64.09 3.05 61
9 04/28/2018 22:51:43 -78.26, 24.34 116.06 04/28/2018 22:52:55 -78.26, 25.60 116.01 28.38 72
10 05/09/2018 12:15:12 -78.53,-175.10 118.78 05/09/2018 12:13:59 -78.55,-176.19 118.81 24.11 73
11 05/09/2018 13:05:54 78.45, -8.28 61.11 05/09/2018 13:04:56 78.44, -8.18 61.09 2.43 58
12 05/09/2018 13:56:36 -78.44, 158.99 118.92 05/09/2018 13:55:57 -78.44, 159.06 118.92 1.59 39
13 05/09/2018 14:47:16 78.42, -33.74 61.06 05/09/2018 14:46:57 78.43, -33.64 61.07 2.32 19
14 05/09/2018 15:37:58 -78.42, 133.54 118.96 05/09/2018 15:37:58 -78.43, 133.61 118.94 2.31 0
15 05/09/2018 16:28:38 78.40, -59.20 61.02 05/09/2018 16:28:58 78.42, -59.10 61.05 3.12 20
16 05/09/2018 17:19:19 -78.43, 108.30 118.96 05/09/2018 17:19:59 -78.42, 108.16 118.97 3.47 40
17 05/09/2018 18:09:59 78.42, -84.43 61.02 05/09/2018 18:10:59 78.42, -84.55 61.02 2.83 60




NCC Satellite Simultaneous Nadir Overpasses (SNOs) Prediction Service
